Date,TemperatureHighF,TemperatureAvgF,TemperatureLowF,DewpointHighF,DewpointAvgF,DewpointLowF,HumidityHigh,HumidityAvg,HumidityLow,PressureMaxIn,PressureMinIn,WindSpeedMaxMPH,WindSpeedAvgMPH,GustSpeedMaxMPH,PrecipitationSumIn
2013-1-1,46,42,39,43,33,21,96,71,46,30.13,29.96,1,0,0,0.00
2013-1-2,45,42,36,44,36,30,96,79,63,30.18,29.95,3,0,0,0.00
2013-1-3,42,36,33,37,30,22,95,80,55,30.30,30.15,2,0,0,0.00
2013-1-4,48,35,29,25,21,19,72,58,35,30.36,30.25,5,1,0,0.00
2013-1-5,50,38,28,28,22,18,66,53,31,30.41,30.23,2,0,0,0.00
2013-1-6,54,41,35,37,31,27,87,69,41,30.25,30.05,5,1,0,0.00
2013-1-7,49,40,31,30,27,24,76,61,43,30.45,30.21,4,0,0,0.00
2013-1-8,53,41,30,37,31,25,84,69,51,30.47,30.39,2,0,0,0.00
2013-1-9,57,51,43,52,46,36,96,83,71,30.46,30.38,0,0,0,0.00
2013-1-10,59,54,49,51,44,34,93,72,49,30.52,30.39,1,0,0,0.00
2013-1-11,50,44,41,46,42,36,98,93,59,30.40,30.18,0,0,0,0.00
2013-1-12,69,56,45,62,54,44,99,95,76,30.18,30.09,0,0,0,0.00
2013-1-13,67,60,56,60,57,55,98,90,78,30.10,30.01,2,0,0,0.00
2013-1-14,61,58,52,58,57,51,98,97,87,30.15,30.03,2,0,0,0.00
2013-1-15,52,44,38,51,43,37,98,98,96,30.19,30.09,0,0,0,0.00
2013-1-16,50,43,38,50,43,37,100,98,98,30.10,29.99,0,0,0,0.00
2013-1-17,50,41,32,50,41,31,99,97,91,30.19,29.93,2,0,0,0.00
2013-1-18,45,36,29,31,24,19,89,64,36,30.55,30.19,4,0,0,0.00
2013-1-19,52,38,29,33,27,21,79,64,40,30.52,30.16,2,0,0,0.00
2013-1-20,55,45,36,34,29,24,70,55,37,30.16,30.04,6,1,0,0.00
2013-1-21,52,42,33,33,23,10,71,49,32,30.10,29.93,7,2,0,0.00
2013-1-22,33,27,21,11,1,-3,46,33,21,30.30,30.00,4,1,0,0.00
2013-1-23,42,30,21,22,12,-3,64,47,33,30.38,30.06,4,0,0,0.00
2013-1-24,43,32,21,30,14,4,66,49,32,30.51,29.97,8,1,0,0.00
2013-1-25,23,21,19,21,14,6,93,76,56,30.53,30.16,1,0,0,0.00
2013-1-26,38,32,21,31,26,19,96,79,66,30.40,30.16,3,0,0,0.00
2013-1-27,36,30,23,28,24,21,91,80,67,30.60,30.39,1,0,0,0.00
2013-1-28,55,41,32,47,36,28,94,84,69,30.51,30.24,2,0,0,0.00
2013-1-29,69,54,41,56,47,39,95,79,49,30.25,30.03,2,0,0,0.00
2013-1-30,63,59,48,61,57,43,97,94,85,30.03,29.39,6,2,0,0.00
2013-1-31,48,36,33,43,23,19,84,60,51,30.00,29.42,5,2,0,0.00
2013-2-1,37,28,21,30,12,4,81,54,37,30.40,29.89,5,2,0,0.00
2013-2-2,36,27,18,29,14,8,87,59,41,30.42,30.07,2,0,0,0.00
2013-2-3,43,36,31,30,26,20,90,68,54,30.09,29.90,6,2,0,0.00
2013-2-4,47,35,26,27,22,17,71,59,43,30.15,30.02,3,0,0,0.00
2013-2-5,54,42,33,38,31,24,76,64,53,30.01,29.94,5,1,0,0.00
2013-2-6,58,48,38,35,26,19,70,45,23,30.27,29.98,2,0,0,0.00
2013-2-7,42,38,35,36,31,25,96,78,50,30.33,30.08,0,0,0,0.00
2013-2-8,53,42,34,45,36,25,97,81,46,30.11,29.91,8,2,0,0.00
2013-2-9,55,41,32,25,20,13,71,44,26,30.37,30.10,3,0,0,0.00
2013-2-10,53,42,36,35,24,16,94,50,33,30.45,30.19,3,0,0,0.00
2013-2-11,58,48,38,53,40,24,97,80,36,30.19,29.96,4,0,0,0.00
2013-2-12,58,48,41,38,26,22,90,43,26,30.09,29.93,4,1,0,0.00
2013-2-13,42,40,38,41,38,31,97,91,75,29.95,29.65,5,0,0,0.00
2013-2-14,53,42,33,33,29,25,78,62,40,30.07,29.87,3,0,0,0.00
2013-2-15,58,44,36,39,32,29,84,64,38,30.10,29.94,3,1,0,0.00
2013-2-16,38,33,26,29,21,13,72,61,47,29.99,29.85,4,1,0,0.00
2013-2-17,35,27,20,14,9,5,65,47,31,30.28,29.99,6,2,0,0.00
2013-2-18,53,37,25,27,17,6,60,45,33,30.41,30.21,2,0,0,0.00
2013-2-19,51,40,32,42,28,13,96,66,33,30.22,29.86,9,1,0,0.00
2013-2-20,48,38,29,16,10,0,48,33,14,30.16,30.02,6,1,0,0.00
2013-2-21,56,41,30,24,16,10,49,37,22,30.28,30.12,3,0,0,0.00
2013-2-22,42,33,31,32,31,23,97,93,46,30.31,30.16,0,0,0,0.00
2013-2-23,47,38,32,44,37,31,98,96,88,30.18,29.86,0,0,0,0.00
2013-2-24,57,48,40,43,32,22,97,57,31,30.05,29.85,4,1,0,0.00
2013-2-25,41,35,30,29,25,22,75,65,50,30.22,30.03,2,0,0,0.00
2013-2-26,39,34,30,38,32,22,97,91,64,30.17,29.63,0,0,0,0.00
2013-2-27,54,43,34,40,35,29,97,75,51,29.82,29.67,5,1,0,0.00
2013-2-28,41,37,34,31,28,25,83,69,55,29.91,29.72,5,1,0,0.00
2013-3-1,41,37,34,29,27,26,75,68,59,29.95,29.88,2,0,0,0.00
2013-3-2,41,34,28,29,24,16,77,66,51,29.97,29.86,6,1,0,0.00
2013-3-3,37,29,24,19,16,13,66,57,47,30.04,29.93,5,2,0,0.00
2013-3-4,52,37,25,16,13,8,63,40,18,30.15,30.01,4,1,0,0.00
2013-3-5,43,40,37,38,28,13,96,66,31,30.09,29.64,1,0,0,0.00
2013-3-6,38,34,30,37,25,21,96,71,58,30.14,29.63,9,4,0,0.00
2013-3-7,46,35,30,29,25,22,77,67,49,30.31,30.14,9,2,0,0.00
2013-3-8,51,39,30,27,24,21,71,56,35,30.36,30.26,4,1,0,0.00
2013-3-9,61,46,34,33,28,23,70,50,27,30.38,30.26,1,0,0,0.00
2013-3-10,64,52,42,38,33,29,63,49,34,30.30,30.17,3,0,0,0.00
2013-3-11,53,49,46,50,40,34,95,71,53,30.19,29.88,4,0,0,0.00
2013-3-12,56,50,42,51,42,31,97,75,47,29.99,29.75,6,1,0,0.00
2013-3-13,45,39,31,32,24,15,70,55,40,30.19,29.97,10,2,0,0.00
2013-3-14,47,36,27,21,16,13,62,46,28,30.30,30.18,7,2,0,0.00
2013-3-15,64,47,33,39,28,17,60,47,29,30.22,29.91,3,1,0,0.00
2013-3-16,76,63,50,53,46,38,72,55,36,29.91,29.66,6,2,0,0.00
2013-3-17,61,53,37,52,46,35,94,78,66,30.13,29.83,0,0,0,0.00
2013-3-18,37,35,34,35,34,33,97,96,94,30.17,29.94,0,0,0,0.00
2013-3-19,58,45,32,44,27,10,98,57,25,30.08,29.86,7,2,0,0.00
2013-3-20,54,43,33,28,13,8,66,31,16,30.10,29.83,6,1,0,0.00
2013-3-21,37,31,25,29,14,9,74,49,35,30.03,29.79,5,2,0,0.00
2013-3-22,51,35,21,19,13,8,65,44,21,30.11,29.99,2,0,0,0.00
2013-3-23,53,44,37,38,25,14,63,48,33,30.07,29.91,1,0,0,0.00
2013-3-24,45,38,32,38,35,31,96,89,63,29.94,29.57,0,0,0,0.00
2013-3-25,39,34,31,31,28,22,97,78,54,29.86,29.57,5,1,0,0.00
2013-3-26,42,35,32,27,25,22,71,65,55,30.19,29.86,4,1,0,0.00
2013-3-27,43,36,31,27,22,19,76,57,44,30.29,30.18,5,2,0,0.00
2013-3-28,49,39,30,27,22,19,65,51,36,30.33,30.25,5,1,0,0.00
2013-3-29,58,45,33,31,24,21,64,46,25,30.36,30.21,3,0,0,0.00
2013-3-30,63,51,40,36,31,28,71,49,30,30.25,30.07,2,0,0,0.00
2013-3-31,60,51,45,54,45,-100,97,85,54,30.07,29.81,4,0,0,0.00
2013-4-1,61,53,46,49,40,31,94,64,45,29.99,29.85,5,1,0,0.00
2013-4-2,56,46,37,34,24,17,68,45,23,30.17,29.99,6,1,0,0.00
2013-4-3,58,46,33,28,20,14,56,36,28,30.31,30.15,2,0,0,0.00
2013-4-4,44,37,33,33,25,15,96,66,35,30.34,30.02,0,0,0,0.00
2013-4-5,60,47,34,45,37,33,97,72,37,30.08,29.97,3,0,0,0.00
2013-4-6,65,54,44,39,35,31,71,51,34,30.25,30.07,2,0,0,0.00
2013-4-7,69,56,44,47,41,34,80,59,42,30.22,30.08,4,1,0,0.00
2013-4-8,76,63,51,55,48,43,73,59,45,30.14,30.01,4,1,0,0.00
2013-4-9,82,69,57,56,52,49,78,57,36,30.16,30.04,4,1,0,0.00
2013-4-10,86,73,61,59,56,53,78,57,36,30.06,29.90,3,1,0,0.00
2013-4-11,78,68,58,63,57,54,93,69,47,29.91,29.70,7,1,0,0.00
2013-4-12,76,64,56,64,53,36,97,72,28,29.80,29.61,7,2,0,0.00
2013-4-13,72,60,50,42,36,32,61,43,25,30.03,29.78,5,1,0,0.00
2013-4-14,75,62,47,47,40,33,71,44,30,30.09,29.98,4,1,0,0.00
2013-4-15,61,54,51,54,52,48,97,94,65,30.23,29.99,4,0,0,0.00
2013-4-16,77,63,55,62,57,54,97,83,59,30.31,30.16,1,0,0,0.00
2013-4-17,72,64,58,62,59,56,96,82,65,30.21,30.11,2,0,0,0.00
2013-4-18,76,66,58,61,58,56,94,77,53,30.14,29.94,3,0,0,0.00
2013-4-19,66,62,49,63,58,40,97,90,70,29.95,29.67,8,2,0,0.00
2013-4-20,59,49,38,40,31,26,71,51,34,30.29,29.88,4,1,0,0.00
2013-4-21,59,50,39,39,33,26,65,53,41,30.50,30.29,1,0,0,0.00
2013-4-22,62,50,37,38,33,28,83,56,34,30.47,30.27,1,0,0,0.00
2013-4-23,70,54,41,50,42,31,85,65,46,30.30,30.10,1,0,0,0.00
2013-4-24,71,60,50,57,52,47,90,75,58,30.12,29.95,3,1,0,0.00
2013-4-25,69,56,40,52,35,23,76,49,18,30.30,30.02,7,1,0,0.00
2013-4-26,68,56,44,42,36,30,63,47,32,30.43,30.30,2,0,0,0.00
2013-4-27,59,55,51,53,46,38,96,72,49,30.36,30.27,0,0,0,0.00
2013-4-28,52,51,50,51,49,-100,97,97,96,30.27,30.05,0,0,0,0.00
2013-4-29,67,57,52,60,55,51,98,93,76,30.08,29.97,1,0,0,0.00
2013-4-30,74,62,55,61,56,54,96,83,58,30.19,30.00,1,0,0,0.00
2013-5-1,67,59,54,56,53,51,92,82,67,30.32,30.17,0,0,0,0.00
2013-5-2,59,55,51,55,52,49,94,90,84,30.33,30.26,0,0,0,0.00
2013-5-3,63,57,51,52,49,45,93,77,57,30.28,30.15,0,0,0,0.00
2013-5-4,59,51,46,48,44,41,93,78,59,30.16,30.05,0,0,0,0.00
2013-5-5,51,48,46,50,45,39,97,89,71,30.11,29.94,1,0,0,0.00
2013-5-6,59,53,51,58,52,50,99,97,89,29.95,29.83,3,0,0,0.00
2013-5-7,61,53,49,57,52,48,98,96,79,29.95,29.87,1,0,0,0.00
2013-5-8,63,54,47,59,52,46,98,94,82,30.03,29.92,1,0,0,0.00
2013-5-9,78,64,52,60,53,50,95,71,40,30.09,30.01,3,0,0,0.00
2013-5-10,79,67,58,61,54,-100,86,68,50,30.06,29.92,3,0,0,0.00
2013-5-11,71,65,60,65,60,56,93,83,67,29.93,29.78,1,0,0,0.00
2013-5-12,64,57,50,56,40,-100,82,57,35,30.05,29.83,3,1,0,0.00
2013-5-13,62,52,42,39,32,28,77,48,28,30.19,30.04,2,0,0,0.00
2013-5-14,70,56,40,48,39,30,73,55,39,30.26,30.05,2,0,0,0.00
2013-5-15,89,70,53,62,52,46,84,57,30,30.06,29.91,2,0,0,0.00
2013-5-16,81,66,65,58,32,-100,66,52,39,29.99,29.89,1,0,0,0.00
2013-5-17,82,70,61,63,54,-100,94,69,50,30.07,29.97,0,0,0,0.00
2013-5-18,66,63,60,65,62,59,97,96,94,30.14,30.05,0,0,0,0.00
2013-5-19,70,64,61,69,63,60,99,98,94,30.11,30.02,0,0,0,0.00
2013-5-20,75,67,63,70,65,62,99,94,72,30.11,30.00,0,0,0,0.00
2013-5-21,85,72,63,72,66,62,98,85,58,30.04,29.91,1,0,0,0.00
2013-5-22,80,66,61,71,63,59,96,89,69,29.97,29.87,3,0,0,0.00
2013-5-23,76,65,59,70,62,55,98,89,71,29.93,29.81,3,0,0,0.00
2013-5-24,66,60,53,57,46,37,84,62,35,30.19,29.85,3,1,0,0.00
2013-5-25,74,60,49,43,38,32,65,46,26,30.29,30.16,2,0,0,0.00
2013-5-26,73,61,52,57,47,37,81,61,46,30.27,30.15,1,0,0,0.00
2013-5-27,77,66,54,61,54,46,78,66,52,30.27,30.13,2,0,0,0.00
2013-5-28,81,69,60,68,61,57,93,76,58,30.20,30.11,2,0,0,0.00
2013-5-29,84,71,61,67,62,58,95,74,52,30.20,30.12,1,0,0,0.00
2013-5-30,82,71,61,68,62,58,93,75,58,30.24,30.14,1,0,0,0.00
2013-5-31,82,72,62,68,62,58,90,74,55,30.19,30.09,2,0,0,0.00
2013-6-1,83,73,65,68,64,61,91,75,55,30.09,29.98,3,0,0,0.00
2013-6-2,72,68,64,69,64,-100,97,89,80,30.01,29.90,1,0,0,0.00
2013-6-3,81,70,64,71,64,60,98,83,55,29.96,29.83,2,0,0,0.00
2013-6-4,76,67,63,66,60,57,87,81,65,30.10,29.95,0,0,0,0.00
2013-6-5,66,64,62,64,62,59,95,91,86,30.11,30.01,0,0,0,0.00
2013-6-6,73,66,62,70,65,61,98,96,88,30.02,29.78,0,0,0,0.00
2013-6-7,76,69,64,71,65,60,98,90,73,29.82,29.63,1,0,0,0.00
2013-6-8,78,69,61,69,64,58,97,84,65,30.08,29.80,1,0,0,0.00
2013-6-9,82,71,65,72,67,64,97,88,62,30.14,30.03,1,0,0,0.00
2013-6-10,77,69,65,70,66,64,98,94,80,30.06,29.85,2,0,0,0.00
2013-6-11,80,70,61,67,63,60,97,80,57,29.98,29.90,2,0,0,0.00
2013-6-12,90,76,65,74,67,61,92,75,51,29.98,29.86,1,0,0,0.00
2013-6-16,80,75,71,70,67,65,82,76,67,30.02,29.99,1,0,0,0.00
2013-6-17,78,72,65,74,68,62,94,87,79,30.01,29.91,0,0,0,0.00
2013-6-18,75,69,64,70,67,61,96,92,81,29.95,29.78,1,0,0,0.00
2013-6-19,78,69,62,69,63,58,91,83,68,30.11,29.89,0,0,0,0.00
2013-6-20,77,68,65,69,65,62,96,90,72,30.23,30.11,0,0,0,0.00
2013-6-22,83,79,71,67,65,63,78,63,54,30.21,30.11,0,0,0,0.00
2013-6-23,86,75,66,71,67,64,95,78,53,30.19,30.09,1,0,0,0.00
2013-6-24,84,73,66,73,68,65,96,86,62,30.17,30.07,1,0,0,0.00
2013-6-25,88,74,64,73,68,63,97,84,57,30.11,29.98,0,0,0,0.00
2013-6-26,87,74,67,73,69,65,96,86,61,30.01,29.88,1,0,0,0.00
2013-6-27,82,72,68,73,68,66,97,88,66,29.92,29.71,1,0,0,0.00
2013-6-28,87,77,70,71,66,64,84,71,53,29.75,29.57,2,0,0,0.00
2013-6-29,84,75,64,70,65,60,90,73,52,29.65,29.58,2,0,0,0.00
2013-6-30,82,74,67,71,69,66,96,84,66,29.82,29.71,2,0,0,0.00
2013-7-1,78,69,64,71,66,62,97,92,76,29.96,29.80,0,0,0,0.00
2013-7-2,71,68,65,70,67,64,98,97,95,30.14,29.95,1,0,0,0.00
2013-7-3,76,70,67,73,68,66,99,97,86,30.20,30.11,1,0,0,0.00
2013-7-4,77,70,67,75,69,66,99,97,88,30.24,30.14,1,0,0,0.00
2013-7-5,81,70,66,74,69,65,99,95,76,30.24,30.17,1,0,0,0.00
2013-7-6,81,72,67,73,69,66,98,91,74,30.22,30.10,1,0,0,0.00
2013-7-7,81,71,66,76,69,65,98,95,78,30.15,30.06,2,0,0,0.00
2013-7-8,84,72,65,75,68,64,98,90,68,30.18,30.09,1,0,0,0.00
2013-7-9,86,76,69,74,70,68,97,85,59,30.14,30.03,0,0,0,0.00
2013-7-10,84,72,68,77,67,-100,97,89,72,30.09,29.92,1,0,0,0.00
2013-7-11,78,71,68,74,69,67,98,96,86,29.94,29.85,0,0,0,0.00
2013-7-12,78,69,66,72,67,64,98,94,77,30.03,29.86,0,0,0,0.00
2013-7-13,75,69,64,70,67,63,97,93,85,30.14,30.02,0,0,0,0.00
2013-7-14,81,72,69,73,70,68,99,94,73,30.29,30.12,1,0,0,0.00
2013-7-15,85,74,68,74,70,67,97,87,65,30.33,30.24,0,0,0,0.00
2013-7-16,90,78,68,75,70,65,94,80,56,30.29,30.19,0,0,0,0.00
2013-7-17,89,79,74,77,72,68,85,78,64,30.23,30.14,0,0,0,0.00
2013-7-28,81,74,69,72,68,61,94,83,74,29.99,29.91,1,0,0,0.00
2013-7-29,81,69,61,68,61,56,90,76,57,30.18,29.99,1,0,0,0.00
2013-7-30,77,69,61,69,62,56,91,80,62,30.23,30.14,0,0,0,0.00
2013-7-31,69,66,63,66,64,61,97,94,88,30.16,29.99,0,0,0,0.00
2013-8-1,85,73,65,74,68,64,98,84,59,29.99,29.86,0,0,0,0.00
2013-8-2,82,73,65,72,66,60,91,79,59,30.02,29.92,1,0,0,0.00
2013-8-3,85,75,69,72,68,65,94,78,55,30.02,29.92,1,0,0,0.00
2013-8-4,83,73,66,69,64,58,97,75,46,30.03,29.92,1,0,0,0.00
2013-8-5,79,70,63,71,64,57,95,81,65,30.08,29.97,0,0,0,0.00
2013-8-6,76,71,67,71,68,66,97,91,80,30.03,29.95,0,0,0,0.00
2013-8-7,72,69,67,71,68,66,97,97,94,30.07,30.01,1,0,0,0.00
2013-8-8,80,72,69,75,70,68,98,95,82,30.06,29.98,1,0,0,0.00
2013-8-9,86,74,70,77,71,69,97,93,71,30.04,29.97,1,0,0,0.00
2013-8-10,85,74,68,77,70,66,97,89,76,30.09,30.02,1,0,0,0.00
2013-8-11,86,74,66,77,70,65,98,90,66,30.11,30.02,1,0,0,0.00
2013-8-12,84,75,67,75,70,66,96,85,74,30.05,29.94,1,0,0,0.00
2013-8-13,80,71,67,74,66,-100,97,87,73,29.95,29.80,2,0,0,0.00
2013-8-14,76,67,62,65,57,-100,89,76,55,30.08,29.86,0,0,0,0.00
2013-8-15,69,57,56,61,42,-100,91,75,69,30.18,30.08,0,0,0,0.00
2013-8-16,73,61,55,63,54,-100,92,82,66,30.20,30.11,0,0,0,0.00
2013-8-17,66,62,58,62,59,54,97,90,81,30.22,30.16,0,0,0,0.00
2013-8-18,72,65,62,69,62,-100,97,94,85,30.23,30.14,0,0,0,0.00
2013-8-19,72,63,65,69,52,-100,97,94,89,30.19,30.09,0,0,0,0.00
2013-8-20,79,70,64,72,66,-100,97,91,69,30.18,30.09,0,0,0,0.00
2013-8-21,77,70,66,72,68,65,97,93,82,30.22,30.10,0,0,0,0.00
2013-8-22,85,75,65,73,68,64,97,81,58,30.14,29.98,0,0,0,0.00
2013-8-23,79,72,67,72,68,64,94,86,73,30.09,29.95,0,0,0,0.00
2013-8-24,78,67,60,64,60,57,96,80,56,30.31,30.09,0,0,0,0.00
2013-8-25,77,66,60,64,58,-100,92,77,53,30.39,30.28,0,0,0,0.00
2013-8-26,81,68,59,69,63,57,95,82,62,30.33,30.11,0,0,0,0.00
2013-8-27,85,74,67,71,66,63,88,78,60,30.12,29.99,1,0,0,0.00
2013-8-28,87,82,74,74,71,67,79,69,63,29.97,29.88,1,0,0,0.00
2013-8-29,89,79,71,76,71,67,97,77,59,29.98,29.83,2,0,0,0.00
2013-8-30,80,72,68,73,69,67,97,90,71,30.04,29.92,0,0,0,0.00
2013-8-31,85,72,68,75,70,67,97,92,71,29.95,29.85,0,0,0,0.00
2013-9-1,81,68,65,74,66,-100,98,95,80,29.89,29.80,0,0,0,0.00
2013-9-2,85,74,66,73,68,65,97,84,60,29.90,29.79,0,0,0,0.00
2013-9-3,84,74,67,70,66,60,92,76,53,29.97,29.79,2,0,0,0.00
2013-9-4,80,70,60,69,62,57,91,77,63,30.10,29.97,0,0,0,0.00
2013-9-5,84,72,62,69,61,56,82,69,45,30.11,30.04,0,0,0,0.00
2013-9-6,77,68,62,67,61,57,91,79,61,30.19,30.09,0,0,0,0.00
2013-9-7,79,68,59,68,62,57,94,81,66,30.13,29.97,0,0,0,0.00
2013-9-8,78,73,71,72,67,64,85,82,80,30.00,29.93,0,0,0,0.00
2013-9-9,83,74,68,72,68,64,90,82,68,30.13,29.99,0,0,0,0.00
2013-9-10,85,74,66,73,69,65,97,86,65,30.22,30.13,0,0,0,0.00
2013-9-11,85,73,68,75,69,65,93,87,67,30.19,30.06,0,0,0,0.00
2013-9-12,86,75,68,73,68,63,91,81,63,30.06,29.82,0,0,0,0.00
2013-9-13,76,69,59,63,57,50,85,68,48,29.92,29.78,2,0,0,0.00
2013-9-14,71,61,50,58,52,45,85,73,53,30.13,29.91,1,0,0,0.00
2013-9-15,75,61,53,63,54,-100,94,82,63,30.22,30.13,1,0,0,0.00
2013-9-16,77,67,59,67,61,56,95,81,62,30.19,30.08,0,0,0,0.00
2013-9-17,66,61,56,59,55,51,86,80,70,30.32,30.20,0,0,0,0.00
2013-9-18,60,56,54,54,52,50,89,83,79,30.30,30.20,0,0,0,0.00
2013-9-19,68,63,58,67,61,56,97,92,85,30.20,30.09,0,0,0,0.00
2013-9-20,82,69,63,71,66,62,97,90,67,30.09,29.91,1,0,0,0.00
2013-9-21,67,65,60,66,64,59,97,97,95,29.93,29.69,1,0,0,0.00
2013-9-22,73,61,53,60,53,-100,97,78,58,29.93,29.74,1,0,0,0.00
2013-9-23,68,59,54,59,54,50,92,83,66,30.08,29.93,1,0,0,0.00
2013-9-24,75,63,56,64,59,54,95,85,66,30.07,29.93,1,0,0,0.00
2013-9-25,64,59,57,63,58,56,96,95,90,29.95,29.88,0,0,0,0.00
2013-9-26,73,62,56,62,57,54,96,83,62,30.06,29.91,0,0,0,0.00
2013-9-27,73,62,54,60,55,51,93,78,59,30.19,30.06,0,0,0,0.00
2013-9-28,68,60,54,58,55,51,91,82,69,30.26,30.18,0,0,0,0.00
2013-9-29,69,59,53,60,53,-100,93,84,70,30.20,30.06,0,0,0,0.00
2013-9-30,72,61,54,62,56,51,95,84,61,30.09,30.01,0,0,0,0.00
2013-10-1,67,65,59,58,57,56,91,76,71,30.10,30.06,0,0,0,0.00
2013-10-2,80,69,60,65,60,56,91,75,55,30.14,30.05,0,0,0,0.00
2013-10-3,80,69,61,66,62,58,91,78,56,30.12,30.05,1,0,0,0.00
2013-10-4,83,72,62,68,64,59,93,77,56,30.13,30.06,0,0,0,0.00
2013-10-5,84,72,64,68,64,60,87,76,52,30.12,30.02,0,0,0,0.00
2013-10-6,79,69,61,68,63,60,96,83,62,30.03,29.88,2,0,0,0.00
2013-10-7,68,63,56,64,57,46,97,83,63,30.02,29.78,2,0,0,0.00
2013-10-8,66,56,49,53,48,43,87,75,60,30.25,30.02,0,0,0,0.00
2013-10-9,68,53,48,49,45,42,85,75,43,30.27,30.16,0,0,0,0.00
2013-10-10,69,59,50,61,52,42,85,78,71,30.17,29.99,1,0,0,0.00
2013-10-11,73,65,59,59,56,52,86,72,55,29.99,29.92,1,0,0,0.00
2013-10-12,69,63,57,63,59,54,95,86,73,30.09,29.96,0,0,0,0.00
2013-10-13,69,62,59,64,59,-100,97,92,83,30.22,30.09,0,0,0,0.00
2013-10-14,68,61,57,62,59,55,97,92,78,30.26,30.16,0,0,0,0.00
2013-10-15,68,59,52,58,54,50,96,84,60,30.22,30.08,1,0,0,0.00
2013-10-16,69,60,52,61,55,49,93,83,68,30.10,29.96,1,0,0,0.00
2013-10-17,63,61,58,62,59,54,96,94,82,29.98,29.83,1,0,0,0.00
2013-10-18,67,58,51,55,51,45,87,78,62,30.03,29.90,1,0,0,0.00
2013-10-19,60,56,52,57,52,46,95,88,73,29.98,29.83,0,0,0,0.00
2013-10-20,63,50,42,46,38,-100,83,67,47,30.12,29.95,1,0,0,0.00
2013-10-21,66,53,43,53,46,38,89,77,58,30.16,30.01,2,0,0,0.00
2013-10-22,67,58,52,53,51,47,93,78,52,30.01,29.79,1,0,0,0.00
2013-10-23,57,50,39,52,39,29,92,69,44,30.03,29.71,4,1,0,0.00
2013-10-24,52,42,36,37,32,28,81,68,52,30.20,30.03,2,0,0,0.00
2013-10-25,45,40,32,36,29,26,82,66,54,30.41,30.20,2,0,0,0.00
2013-10-26,55,41,28,38,30,24,85,67,43,30.41,30.10,2,0,0,0.00
2013-10-27,67,53,43,47,40,-100,84,63,36,30.14,30.04,1,0,0,0.00
2013-10-28,58,54,51,54,48,-100,94,85,74,30.27,30.11,0,0,0,0.00
2013-10-29,70,59,51,55,52,49,95,79,54,30.34,30.24,1,0,0,0.00
2013-10-30,71,61,54,61,55,51,95,83,66,30.27,30.14,1,0,0,0.00
2013-10-31,63,60,57,58,56,54,93,86,77,30.17,29.87,1,0,0,0.00
2013-11-1,74,65,60,62,58,45,94,78,53,29.85,29.62,3,1,0,0.00
2013-11-2,64,56,49,48,40,34,70,56,42,29.96,29.68,3,1,0,0.00
2013-11-3,58,48,43,37,33,-100,75,59,45,30.37,29.96,1,0,0,0.00
2013-11-4,55,46,39,34,31,28,73,58,40,30.56,30.37,1,0,0,0.00
2013-11-5,57,44,34,47,37,27,94,76,58,30.60,30.47,1,0,0,0.00
2013-11-6,62,53,47,53,49,46,97,88,69,30.47,30.14,1,0,0,0.00
2013-11-7,59,51,40,56,44,31,96,77,54,30.15,29.98,5,0,0,0.00
2013-11-8,52,42,35,30,26,22,73,53,32,30.35,30.16,3,0,0,0.00
2013-11-9,54,44,35,31,26,-100,64,52,38,30.39,30.21,1,0,0,0.00
2013-11-10,65,55,41,39,30,22,61,39,30,30.26,30.13,7,1,0,0.00
2013-11-12,55,38,28,39,24,14,64,55,41,30.46,30.06,5,1,0,0.00
2013-11-13,47,34,25,17,16,13,68,48,28,30.58,30.45,3,0,0,0.00
2013-11-14,60,43,31,24,19,13,49,39,21,30.50,30.34,1,0,0,0.00
2013-11-15,54,49,39,45,40,19,95,74,37,30.34,30.23,1,0,0,0.00
2013-11-16,54,49,46,52,46,-100,97,95,93,30.30,30.22,0,0,0,0.00
2013-11-17,56,53,51,55,52,50,97,97,96,30.24,29.90,0,0,0,0.00
2013-11-18,65,57,46,57,43,27,98,63,35,30.01,29.84,4,1,0,0.00
2013-11-19,54,44,38,28,26,23,60,50,32,30.30,30.00,2,0,0,0.00
2013-11-20,49,40,31,31,28,25,80,62,48,30.51,30.29,1,0,0,0.00
2013-11-21,51,44,39,46,38,28,90,80,63,30.54,30.42,0,0,0,0.00
2013-11-22,58,52,46,55,50,45,97,93,86,30.43,30.12,1,0,0,0.00
2013-11-23,58,49,34,53,35,-100,84,61,38,30.23,30.09,5,2,0,0.00
2013-11-24,36,29,23,18,8,0,57,42,23,30.57,30.23,3,1,0,0.00
2013-11-25,33,28,20,16,9,3,59,46,37,30.60,30.42,1,0,0,0.00
2013-11-26,43,36,30,42,34,26,97,95,85,30.41,29.67,1,0,0,0.00
2013-11-27,45,34,24,43,26,13,97,74,58,30.20,29.60,5,2,0,0.00
2013-12-8,38,32,30,35,31,29,96,95,84,30.45,30.32,0,0,0,0.00
2013-12-9,45,37,31,43,36,30,100,96,93,30.32,30.09,0,0,0,0.00
2013-12-10,46,40,31,43,33,18,97,79,56,30.32,29.95,5,1,0,0.00
2013-12-11,49,37,28,25,18,14,61,47,32,30.46,30.31,1,0,0,0.00
2013-12-12,40,34,28,21,16,8,64,49,26,30.42,30.32,3,1,0,0.00
2013-12-13,48,37,28,27,18,12,59,46,33,30.40,30.29,3,0,0,0.00
2013-12-14,39,36,34,36,29,-100,96,81,49,30.30,29.82,0,0,0,0.00
2013-12-16,56,42,31,35,29,26,82,62,39,30.17,30.08,2,0,0,0.00
2013-12-17,58,50,38,38,33,27,83,54,41,30.13,29.90,6,2,0,0.00
2013-12-18,49,38,31,27,18,11,65,45,23,30.30,30.04,3,1,0,0.00
2013-12-19,61,50,36,31,25,11,49,38,29,30.32,30.22,2,0,0,0.00
2013-12-20,60,50,44,41,34,24,75,55,43,30.23,30.12,2,0,0,0.00
2013-12-21,59,54,47,57,48,-100,96,86,76,30.14,29.99,1,0,0,0.00
2013-12-22,63,58,55,62,57,54,97,96,93,30.06,29.93,5,0,0,0.00
2013-12-27,51,40,32,25,20,14,54,44,32,30.50,30.39,1,0,0,0.00
2013-12-28,51,43,35,38,26,-100,93,56,39,30.42,30.21,1,0,0,0.00
2013-12-29,56,44,38,49,39,35,97,86,69,30.17,29.77,5,1,0,0.00
2013-12-30,47,43,39,38,35,32,79,73,66,30.14,29.96,4,0,0,0.00
2013-12-31,44,38,32,30,22,17,68,53,35,30.39,30.12,4,1,0,0.00
2014-1-1,48,38,31,29,24,19,73,57,43,30.39,30.18,2,0,0,0.00
2014-1-2,40,36,28,36,31,14,96,82,67,30.17,29.67,5,1,0,0.00